Change the Weather History Date:

Wednesday, July 24, 2013

  Actual Average (KDEN) Record (KDEN)
Temperature  
Mean Temperature 73 °F 75 °F  
Max Temperature 84 °F 90 °F 100 °F (2003)
Min Temperature 60 °F 60 °F 49 °F (2004)
Degree Days  
Heating Degree Days 0 0  
Month to date heating degree days 1  
Since 1 June heating degree days 63  
Since 1 July heating degree days 1  
Cooling Degree Days 8 10  
Month to date cooling degree days 219  
Year to date cooling degree days 374  
Since 1 June cooling degree days 352  
Growing Degree Days 23 (Base 50)    
Moisture  
Dew Point 57 °F    
Average Humidity 60    
Maximum Humidity 82    
Minimum Humidity 32    
Precipitation  
Precipitation 0.00 in 0.08 in 1.06 in (1973)
Month to date precipitation 1.61  
Year to date precipitation 9.12  
Snow  
Snow 0.00 in - - ()
Month to date snowfall  
Since 1 June snowfall  
Since 1 July snowfall  
Snow Depth -    
Sea Level Pressure  
Sea Level Pressure 30.21 in    
Wind  
Wind Speed 12 mph (SSE)    
Max Wind Speed 32 mph    
Max Gust Speed 55 mph    
Visibility 12 miles    
Events Rain , Thunderstorm    
T = Trace of Precipitation, MM = Missing Value Source: NWS Daily Summary

Daily Weather History Graph

Daily Weather History Graph

Search for Another Location

Airport or City:

Trip Planner

Search our weather history database for the weather conditions in past years. The results will help you decide how hot, cold, wet, or windy it might be!

Date:

Astronomy

Jul. 24, 2013 Rise Set
Actual Time 5:50 AM MDT 8:18 PM MDT
Civil Twilight 5:19 AM MDT 8:49 PM MDT
Nautical Twilight 4:40 AM MDT 9:27 PM MDT
Astronomical Twilight 3:58 AM MDT 10:10 PM MDT
Moon 9:26 PM MDT (7/24) 8:12 AM MDT (7/24)
Length of Visible Light 15h 30m
Length of Day
14h 28m
Waning Gibbous, 94% of the Moon is Illuminated
Jul 24
Waning Gibbous
Jul 29
Last Quarter
Aug 6
New
Aug 14
First Quarter
Aug 20
Full

Hourly Weather History & Observations

Time (MDT) Temp. Heat Index Dew Point Humidity Pressure Visibility Wind Dir Wind Speed Gust Speed Precip Events Conditions
12:16 AM 69.8 °F - 53.6 °F 56% 30.23 in 10.0 mi SSE 6.9 mph - N/A   Clear
12:36 AM 69.8 °F - 55.4 °F 60% 30.22 in 10.0 mi SE 9.2 mph - N/A   Clear
12:56 AM 69.8 °F - 55.4 °F 60% 30.22 in 10.0 mi SE 11.5 mph - N/A   Clear
1:16 AM 71.6 °F - 55.4 °F 57% 30.22 in 10.0 mi SE 16.1 mph - N/A   Clear
1:36 AM 73.4 °F - 57.2 °F 57% 30.22 in 10.0 mi SSE 17.3 mph - N/A   Clear
1:56 AM 71.6 °F - 59.0 °F 64% 30.22 in 10.0 mi SSE 16.1 mph - N/A   Clear
2:16 AM 71.6 °F - 59.0 °F 64% 30.22 in 10.0 mi SSE 11.5 mph - N/A   Clear
2:36 AM 71.6 °F - 57.2 °F 60% 30.22 in 10.0 mi SSE 11.5 mph - N/A   Clear
2:55 AM 69.8 °F - 59.0 °F 68% 30.22 in 10.0 mi SSE 12.7 mph - N/A   Clear
3:16 AM 69.8 °F - 59.0 °F 68% 30.21 in 10.0 mi SSE 11.5 mph - N/A   Clear
3:35 AM 69.8 °F - 60.8 °F 73% 30.21 in 10.0 mi South 11.5 mph - N/A   Clear
3:56 AM 69.8 °F - 60.8 °F 73% 30.20 in 10.0 mi South 11.5 mph - N/A   Clear
4:16 AM 69.8 °F - 60.8 °F 73% 30.20 in 10.0 mi South 11.5 mph - N/A   Clear
4:36 AM 69.8 °F - 60.8 °F 73% 30.20 in 10.0 mi South 11.5 mph - N/A   Clear
4:55 AM 69.8 °F - 60.8 °F 73% 30.20 in 10.0 mi SSW 11.5 mph - N/A   Clear
5:16 AM 69.8 °F - 60.8 °F 73% 30.21 in 10.0 mi South 8.1 mph - N/A   Clear
5:36 AM 68.0 °F - 60.8 °F 78% 30.22 in 10.0 mi South 4.6 mph - N/A   Clear
5:56 AM 68.0 °F - 60.8 °F 78% 30.22 in 10.0 mi South 8.1 mph - N/A   Clear
6:16 AM 68.0 °F - 60.8 °F 78% 30.22 in 10.0 mi South 5.8 mph - N/A   Clear
6:36 AM 68.0 °F - 60.8 °F 78% 30.22 in 10.0 mi SSW 10.4 mph - N/A   Clear
6:56 AM 69.8 °F - 60.8 °F 73% 30.22 in 10.0 mi South 4.6 mph - N/A   Clear
7:16 AM 71.6 °F - 60.8 °F 69% 30.22 in 10.0 mi South 3.5 mph - N/A   Clear
7:36 AM 71.6 °F - 60.8 °F 69% 30.23 in 10.0 mi SE 4.6 mph - N/A   Clear
7:50 AM 73.4 °F - 62.6 °F 69% 30.23 in 30.0 mi SSE 10.4 mph - N/A   Scattered Clouds
8:52 AM 78.8 °F - 59.0 °F 51% 30.23 in 20.0 mi SSE 17.3 mph - N/A   Mostly Cloudy
9:57 AM 78.8 °F - 60.8 °F 54% 30.24 in 20.0 mi SSE 18.4 mph 26.5 mph N/A   Mostly Cloudy
10:50 AM 80.6 °F 81.5 °F 60.8 °F 51% 30.24 in 20.0 mi SSE 23.0 mph 29.9 mph N/A   Mostly Cloudy
11:48 AM 82.4 °F 82.5 °F 59.0 °F 45% 30.22 in 20.0 mi SSE 17.3 mph 27.6 mph N/A   Mostly Cloudy
12:48 PM 84.2 °F 83.8 °F 59.0 °F 42% 30.20 in 20.0 mi SSE 23.0 mph 31.1 mph N/A   Mostly Cloudy
1:50 PM 82.4 °F 82.5 °F 59.0 °F 45% 30.19 in 20.0 mi SSE 16.1 mph 26.5 mph N/A   Mostly Cloudy
2:47 PM 80.6 °F 81.1 °F 59.0 °F 48% 30.19 in 20.0 mi South 11.5 mph - N/A   Mostly Cloudy
3:48 PM 80.6 °F 80.8 °F 57.2 °F 45% 30.19 in 10.0 mi West 17.3 mph - N/A Thunderstorm Mostly Cloudy
4:48 PM 75.2 °F - 53.6 °F 47% 30.19 in 10.0 mi South 32.2 mph 55.2 mph N/A   Mostly Cloudy
5:55 PM 80.6 °F - 48.2 °F 32% 30.15 in 10.0 mi South 18.4 mph 27.6 mph N/A   Mostly Cloudy
6:47 PM 77.0 °F - 53.6 °F 44% 30.15 in 10.0 mi SSE 15.0 mph 31.1 mph N/A   Mostly Cloudy
7:50 PM 75.2 °F - 50.0 °F 41% 30.15 in 10.0 mi South 10.4 mph - N/A   Mostly Cloudy
8:56 PM 71.6 °F - 50.0 °F 46% 30.18 in 10.0 mi SSE 17.3 mph 26.5 mph N/A   Clear
9:17 PM 71.6 °F - 50.0 °F 46% 30.18 in 10.0 mi SSE 15.0 mph 23.0 mph N/A   Clear
9:37 PM 71.6 °F - 50.0 °F 46% 30.19 in 10.0 mi SE 12.7 mph - N/A   Clear
9:56 PM 71.6 °F - 51.8 °F 50% 30.19 in 10.0 mi SE 16.1 mph - N/A   Clear
10:16 PM 69.8 °F - 53.6 °F 56% 30.19 in 10.0 mi SE 15.0 mph - N/A   Mostly Cloudy
10:36 PM 69.8 °F - 53.6 °F 56% 30.22 in 10.0 mi East 5.8 mph - N/A   Overcast
10:56 PM 68.0 °F - 53.6 °F 60% 30.22 in 10.0 mi ESE 12.7 mph 18.4 mph N/A Rain Light Rain
11:16 PM 64.4 °F - 55.4 °F 73% 30.22 in 10.0 mi East 18.4 mph 26.5 mph N/A   Mostly Cloudy
11:36 PM 62.6 °F - 55.4 °F 77% 30.22 in 10.0 mi ENE 17.3 mph - N/A   Scattered Clouds
11:56 PM 60.8 °F - 55.4 °F 82% 30.21 in 10.0 mi East 16.1 mph - N/A   Scattered Clouds